Phoenix Deer Valley, AZ

9:00 PM MST on November 19, 2019 (GMT -0700)
Phoenix-Deer Valley Municipal

Weather History for KDVT - September, 2019

Change the Weather History Date:

Sunday, September 22, 2019

  Actual Average Record
Temperature  
Mean Temperature 78 °F -  
Max Temperature 93 °F 94 °F 102 °F (2001)
Min Temperature 64 °F 72 °F 63 °F (2004)
Cooling Degree Days 14    
Growing Degree Days 28 (Base 50)    
Moisture  
Dew Point 33 °F    
Average Humidity 17    
Maximum Humidity 23    
Minimum Humidity 12    
Precipitation  
Precipitation 0.00 in - - ()
Sea Level Pressure  
Sea Level Pressure 29.86 in    
Wind  
Wind Speed 4 mph ()    
Max Wind Speed 13 mph    
Max Gust Speed -    
Visibility 10.0 miles    
Events      
Averages and records for this station are not official NWS values.
T = Trace of Precipitation, MM = Missing Value Source: Averaged Metar Reports

Daily Weather History Graph

Daily Weather History Graph

Search for Another Location

Airport or City:

Astronomy

Sep. 22, 2019 Rise Set
Actual Time 6:16 AM MST 6:25 PM MST
Civil Twilight 5:51 AM MST 6:50 PM MST
Nautical Twilight 5:22 AM MST 7:19 PM MST
Astronomical Twilight 4:53 AM MST 7:48 PM MST
Moon No Moon Rise 2:06 PM MST (9/22)
Length of Visible Light 12h 58m
Length of Day
12h 08m
Last Quarter, 43% of the Moon is Illuminated
Sep 22
Last Quarter
Sep 28
New
Oct 5
First Quarter
Oct 13
Full
Oct 21
Last Quarter

Hourly Weather History & Observations

Time (MST) Temp. Dew Point Humidity Pressure Visibility Wind Dir Wind Speed Gust Speed Precip Events Conditions
12:53 AM 72.0 °F 27.0 °F 19% 29.83 in 10.0 mi Calm Calm - N/A   Clear
1:53 AM 70.0 °F 26.1 °F 19% 29.83 in 10.0 mi North 5.8 mph - N/A   Clear
2:53 AM 71.1 °F 26.1 °F 19% 29.82 in 10.0 mi NNE 12.7 mph - N/A   Clear
3:53 AM 70.0 °F 25.0 °F 18% 29.84 in 10.0 mi Variable 4.6 mph - N/A   Clear
4:53 AM 69.1 °F 24.1 °F 18% 29.86 in 10.0 mi Calm Calm - N/A   Clear
5:53 AM 64.9 °F 26.1 °F 23% 29.88 in 10.0 mi Calm Calm - N/A   Clear
6:53 AM 66.0 °F 26.1 °F 22% 29.90 in 10.0 mi Calm Calm - N/A   Clear
7:53 AM 75.9 °F 27.0 °F 16% 29.91 in 10.0 mi NNE 6.9 mph - N/A   Clear
8:53 AM 82.9 °F 27.0 °F 13% 29.92 in 10.0 mi NNE 5.8 mph - N/A   Clear
9:53 AM 84.0 °F 30.0 °F 14% 29.94 in 10.0 mi Variable 4.6 mph - N/A   Clear
10:53 AM 88.0 °F 30.9 °F 13% 29.92 in 10.0 mi SSE 6.9 mph - N/A   Clear
11:53 AM 90.0 °F 30.0 °F 12% 29.91 in 10.0 mi South 9.2 mph - N/A   Clear
12:53 PM 91.9 °F 34.0 °F 13% 29.89 in 10.0 mi Variable 3.5 mph - N/A   Clear
1:53 PM 93.0 °F 37.0 °F 14% 29.86 in 10.0 mi South 10.4 mph - N/A   Clear
2:53 PM 93.0 °F 36.0 °F 13% 29.84 in 10.0 mi Calm Calm - N/A   Clear
3:53 PM 93.0 °F 39.0 °F 15% 29.82 in 10.0 mi WSW 5.8 mph - N/A   Clear
4:53 PM 93.0 °F 41.0 °F 16% 29.81 in 10.0 mi NW 4.6 mph - N/A   Clear
5:53 PM 91.9 °F 41.0 °F 17% 29.81 in 10.0 mi West 8.1 mph - N/A   Clear
6:53 PM 90.0 °F 39.9 °F 17% 29.81 in 10.0 mi Calm Calm - N/A   Clear
7:53 PM 86.0 °F 37.9 °F 18% 29.82 in 10.0 mi Calm Calm - N/A   Clear
8:53 PM 84.9 °F 39.0 °F 20% 29.83 in 10.0 mi East 5.8 mph - N/A   Clear
9:53 PM 82.9 °F 37.9 °F 20% 29.83 in 10.0 mi NNE 3.5 mph - N/A   Partly Cloudy
10:53 PM 82.9 °F 36.0 °F 19% 29.83 in 10.0 mi NE 8.1 mph - N/A   Mostly Cloudy
11:53 PM 82.9 °F 36.0 °F 19% 29.83 in 10.0 mi East 3.5 mph - N/A   Overcast